Regional Weather Roundup
Issued by NWS Charleston, SC

Current Version | Previous Version | Graphics & Text | Print | Product List | Glossary On
Versions: 1 2 3 4 5 6 7 8 9 10 11 12 13 14 15 16 17 18 19 20 21 22 23 24 25 26 27 28 29 30 31 32 33 34 35 36 37 38 39 40 41 42 43 44 45 46 47 48 49 50
000
ASUS42 KCHS 240925
RWRCHS

REGIONAL WEATHER ROUNDUP
NATIONAL WEATHER SERVICE CHARLESTON SC
400 AM EST MON NOV 24 2014

NOTE: "FAIR" INDICATES FEW OR NO CLOUDS BELOW 12,000 FEET WITH NO
SIGNIFICANT WEATHER AND/OR OBSTRUCTIONS TO VISIBILITY.

NOT ALL STATIONS ARE QUALITY CONTROLLED BY THE NATIONAL
WEATHER SERVICE. USE DATA WITH CAUTION...ESPECIALLY
DEWPOINT OBSERVATIONS.

SCZ027-030-031-034>040-042>050-241000-
...SOUTHEAST SOUTH CAROLINA...

CITY           SKY/WX    TMP DP  RH WIND       PRES   REMARKS
N CHARLESTON   MOCLDY    66  64  93 S7        29.84S
WATERFRONT PRK   N/A     66 N/A N/A SW12        N/A
MOUNT PLEASANT NOT AVBL
JOHNS ISLAND   FOG       66  66 100 SW9G18    29.84F VSB 3/4
PINOPOLIS        N/A     70  64  83 S2G9      29.75R
MONCKS CORNER  CLOUDY    68  68 100 S5        29.83S
SUMMERVILLE    CLOUDY    66  66 100 S6        29.84R
BEAUFORT MCAS  MOCLDY    67  65  93 S6        29.83S
BEAUFORT ARPT  CLOUDY    64  64 100 S6        29.84R FOG
HILTON HEAD IS CLOUDY    66  66 100 S6        29.85S
WALTERBORO     LGT RAIN  68 N/A N/A S8        29.83S
ALLENDALE      CLOUDY    66  66 100 CALM      29.82S

...SOUTHERN MIDLANDS AND PEE DEE...

CITY           SKY/WX    TMP DP  RH WIND       PRES   REMARKS
GEORGETOWN     NOT AVBL
KINGSTREE      NOT AVBL
ORANGEBURG     LGT RAIN  67  64  90 SW10      29.81R
BARNWELL       CLOUDY    66  66 100 SW8       29.82S
AIKEN          CLOUDY    63  63 100 SW10      29.83S
MANNING        NOT AVBL
COLUMBIA       MOCLDY    66  61  84 SW9G17    29.79S
SUMTER         CLOUDY    66  64  94 SW8       29.78S
FLORENCE       CLOUDY    64  62  93 S3        29.80S FOG
MYRTLE BEACH   CLOUDY    66  63  88 S6          N/A
N MYRTLE BEACH LGT RAIN  65  62  90 SW13      29.83F

$$

GAZ063-065-086>088-099>101-113>116-118-119-134>141-150-241000-
...SOUTHEAST GEORGIA...

CITY           SKY/WX    TMP DP  RH WIND       PRES   REMARKS
SAVANNAH ARPT  CLOUDY    70  66  88 S8        29.84F
HUNTER AAF     CLOUDY    68  68 100 S7        29.82F
FORT STEWART   CLOUDY    68  66  95 S6        29.83S
STATESBORO     NOT AVBL
SYLVANIA       RAIN      66  65  97 SW3       29.83S
CLAXTON        RAIN      68  68 100 CALM      29.83S

...CSRA...CENTRAL AND FAR SOUTHEAST GEORGIA...

CITY           SKY/WX    TMP DP  RH WIND       PRES   REMARKS
THOMSON        CLOUDY    64  64 100 CALM      29.84S
AUGUSTA-BUSH   CLOUDY    66  62  87 W6        29.81R
AUGUSTA-DANIEL PTCLDY    65  61  87 SW7       29.81S
SWAINSBORO     CLOUDY   N/A N/A N/A S5        29.82F
VIDALIA        CLOUDY    66  66 100 SW5       29.82S
HAZLEHURST     CLOUDY    68  68 100 SW5       29.81F
ALMA           CLOUDY    69  68  96 S9        29.83S
WAYCROSS       CLOUDY    75  74  96 SW9       29.83F
JESUP          CLOUDY    73  72  94 SW3       29.85S
BAXLEY         CLOUDY    70  70 100 S7        29.82F
BRUNSWICK      CLOUDY    72  68  88 S9        29.86F
SAINT SIMONS   CLOUDY    65  65 100 S6        29.87S FOG

$$

SCZ027-028-034-036>038-045-046-048>050-GAZ119-141-241000-
...LAKE AND SUPPLEMENTAL COASTAL OBSERVATIONS...

STATION/POSITION TIME  TEMP    WIND        PRES    WAVE   SWELL
                       AIR SEA DIR/SP/G            HT/PER HT/PER/DIR
                 (UTC) (F)     (DEG/KT/KT) (MB)    (FT/S) (FT/S/D)
UPR LAKE MARION  NOT AVBL
WINYAH BAY       0900   66     210/  5     1010.0S
LAKE MURRAY      0800   64     240/  9/ 14 1008.1S
ACE BASIN NERRS  0900   62        CALM     1010.0S
FORT PULASKI     0900   65     200/  6/  9 1010.8F
SAPELO ISLAND    NOT AVBL

$$

ANZ835-935-AMZ111-154-330-350-352-354-370-450-454-472-241000-
...C-MAN AND BUOY OBSERVATIONS...

STATION/POSITION TIME  TEMP    WIND        PRES    WAVE   SWELL
                       AIR SEA DIR/SP/G            HT/PER HT/PER/DIR
                 (UTC) (F)     (DEG/KT/KT) (MB)    (FT/S) (FT/S/D)
FOLLY BEACH CMAN 0900   61     210/  9/ 10 1011.1S
BUOY 41004       0900   76 74  210/ 19/ 23 1010.0R  11/10   8/10
BUOY 41008       0900   67 64  190/ 14/ 16 1011.2R   5/ 9   3/ 90/ 9
CAPERS NEARSHORE 0800   62     230/  8/ 10   N/A
FRIPP NEARSHORE  NOT AVBL


STATION/POSITION TIME  TEMP    WIND        PRES    WAVE   SWELL
                       AIR SEA DIR/SP/G            HT/PER HT/PER/DIR
                 (UTC) (F)     (DEG/KT/KT) (MB)    (FT/S) (FT/S/D)
5E ST. MARYS GA  0900      61                N/A     5/ 9   2/100/11
FRYING PAN BUOY  0900   70 67  210/  8/ 10 1011.0F  10/ 9  10/140/ 9
BUOY 41025       0900   74     150/ 27/ 33 1009.4R  14/10   8/150/10
CAPE LOOKOUT NC  0900   64     190/ 10/ 11 1010.5F
BUOY 41002       0758   74 73  190/ 21/ 27 1015.8R  12/ 8
BUOY 41010       0900   78 78  180/ 17/ 21 1014.3R   9/ 8   5/120/10
ST AUGUSTINE FL  0900   69     200/  3/  4 1013.4R


$$


USA.gov is the U.S. government's official web portal to all federal, state and local government web resources and services.